Terug naar catalogus

COSMOS 2251 DEB

LostLEO
NORAD 37296·DEBRIS·🇷🇺 Russia

Gelanceerd Jun 16, 1993 vanaf Plesetsk Cosmodrome

Loading…

Volgende Passages (komende 24 uur)

TLE

VerouderdSource: Space-Track

Epoch: Jun 25, 2023, 17:41 UTC

1 37296U 93036BJL 23176.73702097  .00023179  00000-0  47809-2 0  9994
2 37296  73.8385 323.8197 0061694  63.5473 297.2002 14.59158448684481

Volg COSMOS 2251 DEB in realtime met AllMySat

Download on the App Store